Regional Weather Roundup
Issued by NWS Little Rock, AR

Home | Current Version | Previous Version | Graphics & Text | Print | Product List | Glossary On
Versions: 1 2 3 4 5 6 7 8 9 10 11 12 13 14 15 16 17 18 19 20 21 22 23 24 25 26 27 28 29 30 31 32 33 34 35 36 37 38 39 40 41 42 43 44 45 46 47 48 49 50
000
ASUS44 KLZK 080305
RWRLZK

WEATHER ROUNDUP FOR ARKANSAS
NATIONAL WEATHER SERVICE LITTLE ROCK AR
900 PM CST SUN FEB 07 2016

NOTE: "FAIR" INDICATES FEW OR NO CLOUDS BELOW 12,000 FEET WITH NO
SIGNIFICANT WEATHER AND/OR OBSTRUCTIONS TO VISIBILITY.

ARZ001-003-010-029-080400-
NORTHWEST ARKANSAS

CITY           SKY/WX    TMP DP  RH WIND       PRES   REMARKS
FAYETTEVILLE   PTCLDY    43  24  47 NW12      30.09R
FORT SMITH     CLEAR     41  26  55 W8        30.11R
HARRISON       CLOUDY    46  22  38 NW13G20   30.03S
BENTONVILLE    CLEAR     45  12  26 NW9G16    30.09S
ROGERS         PTCLDY    45  15  30 NW12G18   30.08R
SILOAM SPGS    PTCLDY    43  19  39 NW13      30.10S
HIGHFILL       CLEAR     44  17  33 NW10      30.08R
SPRINGDALE     CLEAR     45  18  33 NW10      30.10R
$$

ARZ004-005-016-080400-
NORTH CENTRAL ARKANSAS

CITY           SKY/WX    TMP DP  RH WIND       PRES   REMARKS
BATESVILLE     PTCLDY    50  27  40 W5        30.02S
FLIPPIN        MOCLDY    46  19  34 W8        30.00S
MTN HOME       MOCLDY    45  25  45 W3        30.00F
$$

ARZ040-041-080400-
WEST CENTRAL ARKANSAS

CITY           SKY/WX    TMP DP  RH WIND       PRES   REMARKS
MENA           CLEAR     50  30  46 SW3       30.11S
MOUNT IDA      MOCLDY    50  28  42 VRB3      30.07R
$$

ARZ009-017-025-026-028-080400-
NORTHEAST ARKANSAS

CITY           SKY/WX    TMP DP  RH WIND       PRES   REMARKS
CORNING        FAIR      48  30  49 W13       29.97S
JONESBORO      CLOUDY    48  31  51 W7        29.98S
NEWPORT        PTCLDY    49  32  52 W7        30.02R
WALNUT RIDGE   CLOUDY    48  27  43 NW9       29.98S
BLYTHEVILLE    PTCLDY    49  33  54 W10       29.96S
$$

ARZ022-023-033-042-044-080400-
CENTRAL ARKANSAS

CITY           SKY/WX    TMP DP  RH WIND       PRES   REMARKS
LITTLE ROCK    MOCLDY    54  30  40 W13G22    30.05S
N LITTLE ROCK  MOCLDY    52  34  50 W8G18     30.05S
JACKSONVILLE   CLOUDY    47  33  58 SW8       30.03S
SEARCY         CLOUDY    51  32  48 W6        30.04S
HOT SPRINGS    PTCLDY    52  30  43 NW5       30.08R
RUSSELLVILLE   CLOUDY    51  26  37 NW7       30.06R
CLINTON        FAIR      39  32  75 CALM      30.04F
$$

ARZ036-080400-
EAST ARKANSAS

CITY           SKY/WX    TMP DP  RH WIND       PRES   REMARKS
WEST MEMPHIS   PTCLDY    49  33  54 SW6       29.98S HAZE
$$

ARZ050-053-066-070-073-080400-
SOUTHWEST ARKANSAS

CITY           SKY/WX    TMP DP  RH WIND       PRES   REMARKS
ARKADELPHIA    FAIR      51  33  50 NW7       30.10R
CAMDEN         CLEAR     48  27  43 SW5       30.08S
TEXARKANA      CLEAR     53  33  46 W9        30.12R
EL DORADO      CLEAR     39  32  76 SW6       30.10S
DE QUEEN       CLEAR     50  30  46 N5        30.12R
$$

ARZ056-057-069-080400-
SOUTHEAST ARKANSAS

CITY           SKY/WX    TMP DP  RH WIND       PRES   REMARKS
PINE BLUFF     CLEAR     50  28  42 SW8       30.04F
STUTTGART      CLEAR     46  34  61 SW9       30.03F
MONTICELLO     CLEAR     50  27  40 SW6       30.06S

$$





USA.gov is the U.S. government's official web portal to all federal, state and local government web resources and services.